Weather in Rock Sound

Bahamas     24°48′59″N   76°10′13″W
temp.,
°C
wind,
m/s
gust,
m/s
humid.,
%
clouds,
%
prec.,
mm/h
press.,
hPa
HPBL,
m
14 june, mon
mon1423:00+28s5580100 1.6 1015343
02:00+28ssw447862 2.8 1015410
05:00+27ssw227580 1.9 1015205
08:00+28s337597 1.9 1016396
11:00+28s3375100 1.0 1017313
14:00+28s447498 1.3 1017489
17:00+28s5576100 0.6 1016466
20:00+28s4480100 2.3 1017428
15 june, tue
tue1523:00+28sse337891 0.3 1018352
02:00+27s447998 0.5 1017427
05:00+27sse448085 0.1 1017423
08:00+27se7880100 0.1 1017526
11:00+28sse6681100 0.2 1019641
14:00+28sse5580100 1.7 1018647
17:00+28sse4578100 0.1 1017684
20:00+28se4579100 0.1 1018524
16 june, wed
wed1623:00+27ese8882100 0.0 1018533
02:00+27sse5582100 0.0 1017638
05:00+27se448377 0.4 1017510
08:00+27se5582100 0.5 1018598
11:00+27ese5681100 0.0 1018584
14:00+28ese5578100 0.0 1017558
17:00+27ese3379100 3.0 1017221
20:00+27e4579100 3.6 1017494
17 june, thu
thu1723:00+27ese4579100 1.4 1019405
02:00+27ese667768 1.7 1017589
05:00+27se5580100 1.6 1017656
08:00+27se5579100 3.6 1018651
11:00+27ese4479100 1.1 1018678
14:00+27ese557847 1.4 1017727
17:00+28ese4474100 0.0 1017801
20:00+28e5576100 0.0 1018769
18 june, fri
fri1823:00+27e6776100 0.0 1019737
02:00+27e6776100 0.0 1018766
05:00+27ese6776100 0.0 1018764
08:00+27ese7776100 0.0 1019828
11:00+27ese6677100 0.0 1019876
14:00+28ese5675100 0.1 1019831
17:00+27e5575100 0.0 1018779
20:00+27e6779100 0.0 1019599